GFSSGP_sfc_rhum_132.txt.gz
RH
55 42 38 51 51 31 37 36 26 34 34 28 29 34 36 41 40 53 32 37 36 35 44 54 79 77 77 77 77 77 74 72 74 74 76 74 73 73 74 74 73 71 73 75 75 72 74 74 74
35 45 49 47 39 34 38 31 32 32 29 30 34 34 35 50 40 42 40 37 35 33 35 44 82 77 76 77 77 74 70 70 74 75 73 74 73 73 73 74 72 70 74 72 72 77 74 75 76
45 44 52 44 34 35 38 30 30 30 28 34 43 36 41 48 39 38 36 36 34 36 36 55 78 77 76 75 76 72 76 72 73 74 73 74 73 73 72 70 71 72 72 72 74 73 73 72 73
41 57 55 57 44 40 33 28 27 32 32 36 37 48 41 35 39 36 37 35 34 36 36 65 76 74 75 76 72 74 76 76 75 74 73 71 70 72 73 71 71 70 70 70 70 73 75 73 73
38 56 63 48 46 35 29 27 27 33 37 38 34 41 48 45 38 36 38 34 34 32 36 46 76 75 74 72 74 75 75 75 74 72 74 71 72 69 72 73 70 72 71 67 72 72 72 73 73
45 43 52 55 49 39 33 29 30 37 38 38 36 40 53 42 40 37 34 34 30 31 31 42 73 75 74 71 74 75 74 73 74 73 73 72 72 71 68 71 70 70 70 70 70 72 73 72 73
40 47 58 52 53 48 41 33 38 37 36 36 31 39 50 41 39 36 35 32 31 31 33 38 43 64 72 72 72 74 73 75 73 72 72 72 72 69 68 68 68 69 67 68 70 71 72 73 71
38 52 66 58 58 58 46 38 36 37 43 32 28 41 51 43 39 37 33 33 34 33 34 44 39 40 46 47 72 70 71 74 73 72 70 72 68 68 66 71 68 66 66 67 69 70 72 72 72
41 61 74 61 67 56 42 41 40 36 39 32 36 29 33 40 38 36 39 38 37 39 39 54 34 47 62 60 60 66 69 73 76 74 71 64 38 42 48 66 65 64 64 65 66 69 70 70 72
36 51 54 50 61 54 52 42 48 40 39 43 42 36 38 39 39 41 40 37 38 40 41 46 42 52 49 47 60 60 71 70 60 64 55 44 44 52 45 62 69 69 68 70 70 68 67 66 32
39 54 47 50 50 64 48 43 36 37 40 35 44 42 38 38 40 38 35 31 36 39 40 40 53 52 53 74 45 54 65 61 66 58 48 48 43 43 38 43 42 42 60 35 43 45 35 40 31
48 46 45 57 49 54 50 44 44 37 40 34 33 33 34 37 36 34 32 36 40 43 42 41 54 62 70 44 44 46 42 41 42 50 58 55 43 45 44 40 43 44 36 43 41 33 44 41 41
36 48 51 50 49 64 56 56 46 50 38 32 32 33 35 36 36 33 33 37 40 41 41 41 50 64 80 64 44 44 45 38 43 44 54 45 43 48 42 48 40 42 38 38 42 40 40 40 34
37 43 50 50 54 56 76 69 62 69 37 37 35 35 33 35 34 37 38 40 41 41 41 42 47 59 65 62 58 53 44 43 39 39 46 55 42 49 42 43 39 41 40 39 40 44 38 32 30
36 49 50 53 54 64 75 86 77 78 46 38 36 36 36 37 36 40 39 41 41 39 42 46 47 47 56 58 55 46 41 37 39 40 52 52 51 55 52 44 40 40 46 50 45 42 38 30 28
44 42 50 56 56 58 63 89 79 79 65 40 36 36 37 38 38 40 38 38 39 38 48 48 37 44 50 51 51 42 39 39 38 39 42 50 54 55 55 40 39 43 42 39 39 34 32 31 28
38 35 44 63 55 59 60 63 76 75 78 60 36 35 36 38 39 41 38 38 39 41 50 51 47 49 51 59 50 47 51 42 38 40 41 56 52 56 46 39 43 49 40 40 35 35 34 34 28
29 31 39 54 59 58 61 65 61 83 78 76 43 33 35 34 37 39 38 37 38 43 50 59 62 59 59 56 56 44 42 42 41 41 41 55 48 53 53 42 47 45 39 40 40 45 38 34 30
24 28 40 44 56 54 53 56 61 67 78 82 60 39 32 33 32 36 38 37 38 43 49 53 63 69 56 50 45 44 42 44 44 43 53 56 50 57 60 41 46 47 44 54 52 45 50 37 41
23 32 40 46 50 52 52 53 62 67 74 81 70 47 33 30 31 36 38 36 38 43 48 60 63 69 60 49 48 43 43 41 42 44 52 52 49 55 52 58 47 54 42 57 56 56 37 37 40
23 26 34 37 47 48 55 57 68 68 66 81 55 42 32 30 31 36 40 38 38 45 48 55 60 64 63 55 52 59 68 70 53 51 46 49 51 51 59 58 55 55 52 41 54 51 54 37 42
20 23 35 40 39 43 44 43 61 66 70 78 42 43 32 30 31 32 37 39 37 42 45 51 61 65 66 62 56 61 48 46 42 45 44 47 54 54 53 57 55 59 48 56 52 44 55 58 41
22 25 32 33 35 35 36 46 54 60 60 60 52 41 34 30 29 31 34 37 36 39 42 46 59 71 62 66 61 67 55 43 44 44 57 58 62 56 52 58 57 58 47 58 60 58 62 46 45
22 28 34 34 30 36 31 37 42 49 48 40 45 40 36 28 28 30 31 35 37 37 40 45 60 67 64 66 64 67 60 51 45 51 50 44 43 48 56 55 60 60 53 59 53 60 61 63 57
21 21 28 32 34 34 37 42 36 36 33 34 36 41 40 32 28 29 33 35 39 41 43 44 56 66 63 57 58 61 62 61 62 60 49 48 41 40 53 60 61 53 61 57 60 65 60 55 55
20 17 20 44 49 45 42 49 36 30 32 29 29 29 44 36 27 27 32 36 41 42 45 45 52 62 60 59 62 64 67 75 48 54 43 45 40 42 49 57 54 57 58 55 60 51 47 52 50
17 22 15 26 29 30 28 34 33 26 37 36 32 32 39 40 31 28 32 36 39 42 46 47 51 57 56 52 58 64 63 60 51 56 57 48 53 41 51 54 57 56 58 58 59 48 56 56 56
22 16 24 21 49 50 28 32 34 42 48 44 39 39 38 46 49 30 31 35 36 37 40 44 47 53 52 50 52 53 57 59 61 60 64 56 55 58 55 61 59 57 58 59 63 52 58 62 49
26 23 22 20 29 61 43 49 39 55 53 47 40 36 44 43 50 36 34 36 37 38 39 42 46 51 51 50 52 53 51 51 58 71 65 66 66 60 59 60 58 62 60 62 65 63 55 60 60
25 28 22 29 48 31 73 30 42 51 50 45 38 39 38 59 56 43 41 40 42 42 43 47 45 47 48 48 54 53 52 53 50 56 56 59 72 59 63 62 60 59 58 63 64 62 54 62 60

GFSSGP_sfc_rhum_135.txt.gz
RH
48 42 34 39 66 45 32 33 26 28 27 21 23 24 28 34 39 51 27 28 29 36 46 54 79 78 77 78 78 77 72 76 75 75 74 73 75 74 74 72 73 75 73 73 73 73 71 72 74
30 35 38 45 73 39 37 26 30 29 24 24 24 25 30 40 30 33 32 29 30 32 38 44 81 78 77 77 75 74 74 75 74 74 74 72 73 73 73 73 71 73 74 72 73 72 74 75 76
40 34 46 68 64 38 37 28 26 25 26 29 32 30 30 37 29 29 28 27 31 52 47 56 77 77 76 73 73 73 72 73 73 73 74 74 73 71 70 72 72 72 73 72 74 73 73 73 73
35 46 47 75 40 28 26 26 23 26 31 26 30 38 28 28 30 28 27 28 30 44 39 66 75 74 75 72 75 74 75 74 73 73 74 75 73 70 70 71 71 71 70 70 73 74 73 71 72
34 65 47 93 30 25 22 22 23 32 34 29 27 36 38 32 28 28 27 26 31 36 36 49 76 76 75 73 75 74 73 72 72 73 72 70 71 72 70 72 69 68 72 71 73 73 73 72 72
42 31 88 43 40 28 23 25 30 35 28 28 32 36 39 30 30 28 24 24 28 32 32 44 72 73 74 74 76 73 73 74 73 73 72 72 70 70 72 72 70 70 70 71 71 72 71 73 72
41 60 54 54 44 41 34 26 32 37 32 26 25 40 35 30 28 26 24 23 24 28 28 34 43 65 71 75 74 73 73 72 73 72 72 71 69 68 70 70 69 68 70 70 71 72 72 70 71
32 44 78 47 57 50 34 33 28 36 30 22 23 37 38 32 28 26 24 23 24 26 31 34 34 39 50 51 70 72 71 71 70 71 71 70 66 65 68 74 69 69 68 69 69 70 72 72 70
30 70 85 69 67 65 33 34 33 28 29 25 25 25 28 28 27 26 28 29 28 29 39 37 40 48 59 58 59 68 72 73 73 69 71 67 37 43 52 67 66 65 65 66 68 67 70 72 71
50 65 47 48 62 70 40 50 35 32 34 29 26 26 28 29 29 30 29 29 29 43 33 38 39 42 41 39 54 60 55 51 48 45 46 40 47 46 42 59 66 64 63 65 66 67 65 69 41
37 46 38 39 48 41 41 36 34 37 39 30 32 33 31 30 31 32 27 25 28 32 40 42 42 52 47 50 41 46 50 48 57 51 42 42 39 40 33 44 45 43 60 43 53 51 44 34 29
41 38 37 44 44 42 40 39 38 42 33 25 27 29 29 29 30 30 25 25 35 35 36 39 45 81 53 55 42 42 48 39 38 42 47 47 35 53 40 34 38 40 33 40 40 32 37 35 36
41 40 40 39 40 50 41 54 43 39 28 24 26 27 28 29 32 30 27 29 38 39 42 45 49 75 63 51 40 58 39 31 39 41 42 64 64 56 48 40 50 46 30 31 35 34 34 35 32
28 34 39 40 45 46 53 65 48 44 36 26 26 26 28 34 33 30 32 37 42 45 48 39 44 58 51 48 64 44 38 34 34 34 41 60 49 69 38 39 38 35 37 32 34 44 33 29 29
27 39 38 46 50 52 53 80 63 58 50 28 29 30 32 37 30 32 35 40 38 39 40 36 42 46 64 52 50 42 34 31 31 36 50 46 49 50 46 40 74 33 40 43 40 40 33 27 25
28 30 43 42 42 50 45 80 83 71 61 38 32 35 36 36 33 32 30 36 42 38 37 39 34 41 48 48 45 37 33 32 31 36 42 46 49 49 57 40 43 36 36 32 32 31 28 26 26
24 43 68 49 43 49 53 67 72 75 61 56 49 36 34 36 41 39 30 36 30 36 49 51 54 44 46 51 44 38 42 35 32 33 35 48 47 50 56 53 42 48 32 34 41 30 31 29 25
32 29 32 52 46 47 51 56 56 64 68 61 54 47 35 33 42 36 29 32 29 36 56 65 52 58 58 48 48 37 40 36 34 33 38 48 47 47 51 39 43 53 48 34 48 39 33 29 26
21 22 38 50 42 46 47 49 59 65 70 64 62 54 40 38 38 41 31 28 37 38 57 57 57 58 58 47 44 40 39 39 36 35 48 50 59 50 57 45 46 83 54 55 47 42 46 31 34
18 18 30 30 37 39 46 41 50 56 52 57 67 50 50 32 40 37 42 28 29 38 58 67 63 67 53 45 47 41 40 37 46 61 48 48 47 50 48 58 46 61 53 53 51 52 40 32 31
15 20 31 34 46 32 39 43 51 50 52 57 64 52 52 48 61 38 46 29 29 36 45 55 63 65 59 53 44 45 44 56 66 59 42 45 47 47 53 52 56 55 64 46 52 49 55 60 34
15 16 23 27 28 48 33 42 52 50 57 70 70 49 39 41 33 37 38 36 29 34 36 52 59 62 58 57 70 68 49 47 41 41 42 46 49 48 48 51 51 56 53 91 51 42 57 57 51
24 20 21 22 25 22 20 30 46 45 55 58 63 42 34 38 29 32 30 38 28 32 34 41 54 69 61 61 76 53 57 40 38 36 59 60 58 49 46 51 53 55 45 55 58 55 60 48 46
11 18 19 22 22 25 19 25 72 57 44 43 44 34 33 35 27 24 29 36 37 30 33 37 57 69 66 60 61 64 57 74 41 46 46 42 43 45 52 50 55 56 52 55 51 56 56 63 58
12 16 22 25 22 27 54 26 59 60 28 36 47 37 35 37 23 23 30 38 37 34 35 38 52 64 60 59 58 61 61 67 58 53 45 54 35 36 56 57 58 52 60 54 57 61 57 55 55
13 13 18 37 51 50 53 32 72 24 25 23 31 35 32 41 30 25 24 35 41 36 35 38 50 59 58 57 64 68 62 49 48 55 70 41 63 38 62 56 52 54 53 54 56 51 48 54 49
13 15 10 19 20 28 50 45 29 22 29 27 24 28 35 31 32 40 24 26 31 35 37 39 48 53 52 51 57 70 69 59 54 61 53 42 57 60 50 49 52 51 53 55 58 50 52 53 55
12 14 14 16 45 43 58 84 63 35 36 34 29 26 30 33 37 45 25 25 29 35 33 37 42 50 49 47 49 50 58 61 56 58 67 54 49 53 69 62 56 54 54 55 61 54 55 56 47
15 18 17 16 31 62 62 78 30 43 39 34 31 29 30 31 38 38 38 30 30 32 40 36 40 46 48 45 48 50 48 49 60 56 56 59 56 56 57 58 57 56 56 57 66 65 65 70 59
46 37 25 33 35 53 61 90 36 38 39 34 32 32 36 44 57 55 82 42 46 46 47 42 40 41 44 44 50 47 47 47 46 56 56 70 65 59 60 59 60 58 56 58 64 62 52 61 55

GFSSGP_sfc_rhum_138.txt.gz
RH
44 42 42 46 79 74 41 35 22 26 26 20 24 28 37 62 49 64 61 45 40 47 57 62 78 75 75 75 76 76 77 76 76 77 75 76 75 75 74 76 74 74 74 74 74 74 74 75 76
30 38 39 79 86 52 56 28 39 31 24 22 57 40 34 40 35 41 42 39 39 42 47 56 83 80 78 77 77 76 74 75 75 75 75 74 74 75 74 72 77 74 75 73 73 74 74 74 75
47 32 57 95 86 64 38 32 29 30 32 28 59 40 30 37 30 32 46 67 71 52 49 66 81 79 77 76 76 77 74 74 74 75 76 74 73 72 74 74 74 74 74 74 74 74 74 74 72
42 40 48 94 67 35 28 26 24 24 31 28 27 34 30 30 29 32 47 74 64 67 53 72 79 76 75 76 77 75 75 75 75 74 75 74 74 72 72 72 72 71 74 74 74 73 72 70 70
43 48 86 70 58 28 23 22 27 39 43 40 30 36 37 30 25 31 36 43 52 45 52 61 80 79 77 75 75 77 74 74 76 75 76 74 73 71 70 69 71 75 73 74 74 72 72 72 72
46 77 87 81 37 29 24 26 38 41 26 34 32 37 40 27 26 27 32 35 33 40 48 58 76 78 76 74 74 77 75 76 77 77 75 74 74 71 72 71 70 70 71 70 70 73 72 72 68
66 87 88 88 49 39 34 33 60 32 48 28 31 44 36 30 25 33 42 64 31 35 44 54 56 71 73 78 77 75 75 76 75 75 76 75 72 72 73 74 71 70 69 70 72 71 70 72 71
59 79 78 88 67 66 37 52 32 41 47 26 27 39 45 31 25 26 35 42 44 38 36 49 56 55 63 64 74 72 74 73 73 73 72 74 70 70 71 75 73 70 69 69 71 72 71 69 67
82 76 93 89 71 62 47 40 30 33 22 27 35 31 30 26 24 30 29 29 35 42 60 75 47 55 70 70 68 72 72 72 74 72 72 74 62 62 62 72 69 67 68 68 69 71 72 71 68
78 93 60 50 60 65 65 79 62 29 27 30 32 30 25 26 29 28 34 35 52 48 90 94 86 54 57 48 72 74 68 64 68 64 76 81 65 64 52 65 67 65 66 67 69 70 72 71 55
45 82 60 46 49 63 83 64 38 37 39 27 35 29 28 28 36 29 43 35 36 42 77 84 73 55 48 63 62 61 59 60 62 60 64 63 57 60 56 67 62 67 69 62 65 66 63 61 61
56 35 41 48 42 38 60 68 44 41 55 46 26 26 28 30 34 35 28 38 39 44 49 75 75 88 57 58 60 55 55 54 55 61 64 73 62 62 56 60 62 66 67 60 64 54 53 50 50
33 37 38 40 36 46 72 69 44 39 31 26 25 27 28 36 61 51 33 35 39 45 41 68 79 81 76 70 68 53 65 49 54 60 71 70 66 71 59 70 74 73 57 58 63 62 53 54 45
54 58 36 42 45 40 60 56 42 43 38 26 26 27 30 34 33 31 41 45 37 46 61 62 65 74 66 86 89 88 73 52 51 52 71 67 76 78 63 65 61 62 64 62 63 72 62 57 46
54 48 41 41 45 48 47 66 68 54 48 45 25 27 31 42 46 36 40 42 46 50 57 56 56 52 72 91 91 93 52 40 46 55 63 66 73 79 74 78 70 67 65 60 59 60 52 49 43
24 30 51 43 50 46 45 68 84 66 58 50 33 41 46 36 36 36 37 38 38 42 66 61 39 49 59 61 64 63 49 50 54 54 59 69 81 67 75 69 72 64 65 66 66 60 59 51 53
21 31 55 67 51 47 47 66 64 64 58 53 48 45 57 56 38 58 38 35 34 50 51 53 63 57 60 69 60 58 55 59 56 50 55 66 60 63 72 75 67 64 68 68 59 57 56 55 52
43 32 35 72 48 47 55 57 59 59 56 55 49 52 60 74 33 39 39 34 39 46 55 63 62 74 68 64 67 63 56 60 58 59 63 64 71 59 81 78 67 80 92 70 68 73 63 60 54
29 28 39 51 44 45 49 54 58 52 65 60 55 44 50 47 31 36 42 30 36 50 70 67 70 82 68 63 64 72 58 68 61 70 66 78 83 69 84 86 78 91 96 92 66 61 63 66 56
21 24 29 36 32 35 39 53 54 55 54 45 53 63 56 49 53 34 39 33 37 53 66 68 71 76 76 70 71 65 63 63 61 64 64 78 82 64 65 74 93 91 96 94 67 73 77 65 57
19 22 31 38 29 28 31 45 60 53 50 45 44 56 56 58 66 65 40 41 44 55 64 67 72 76 72 69 70 71 70 72 72 68 62 60 62 62 67 67 80 92 97 93 81 72 89 84 68
16 18 24 33 28 30 31 50 59 57 60 51 49 51 48 47 76 62 43 37 44 55 61 68 73 76 71 77 71 73 70 72 71 73 71 63 62 61 62 67 69 97 97 92 94 73 85 78 80
14 16 18 24 30 21 22 32 45 55 66 63 52 45 43 37 75 59 65 36 35 51 53 63 73 79 75 77 79 68 73 64 58 58 77 75 76 68 58 65 67 78 77 78 94 78 84 88 82
10 18 21 28 26 27 19 23 62 78 75 53 51 49 44 34 37 54 68 52 41 36 46 58 76 81 76 74 76 78 77 76 75 75 68 67 68 66 67 64 70 72 73 73 75 76 75 82 87
11 13 21 26 23 31 33 32 64 41 54 40 46 53 42 36 32 57 63 54 38 44 40 57 72 78 75 71 73 73 78 81 83 72 65 66 67 57 71 74 76 73 76 73 75 79 80 75 78
12 12 17 40 51 72 41 60 43 34 34 34 36 41 38 33 34 50 44 45 41 43 43 50 69 77 74 71 76 78 79 88 93 72 67 72 72 68 72 72 72 72 73 72 75 77 75 75 75
11 15 10 15 19 36 51 51 48 31 25 24 36 39 37 35 34 42 39 49 45 47 46 52 67 70 68 65 81 77 76 76 65 77 78 70 73 70 72 73 72 71 71 74 76 74 78 77 75
9 10 18 13 31 45 66 73 79 72 88 28 40 53 42 38 43 35 41 54 40 43 47 50 59 64 63 60 68 65 70 74 75 77 81 80 79 77 78 77 82 71 70 76 78 75 74 79 74
15 14 31 26 38 40 68 83 81 83 74 45 30 41 34 33 40 38 45 65 71 42 42 45 56 60 59 57 63 68 70 68 80 82 87 79 80 77 79 85 87 77 72 76 81 80 78 77 79
18 21 33 35 91 72 49 92 83 81 76 30 30 32 39 32 33 39 44 77 76 52 51 51 50 55 54 56 64 61 66 68 78 74 75 78 79 78 75 79 81 77 74 76 78 77 70 75 79

GFSSGP_sfc_rhum_141.txt.gz
RH
59 52 54 72 93 90 58 42 30 37 46 39 35 43 42 48 57 92 67 62 59 67 71 71 78 74 73 75 77 75 77 76 77 77 77 76 76 76 75 75 74 75 74 73 75 74 74 73 71
48 37 70 96 96 76 62 43 45 49 46 35 36 44 49 59 54 65 69 58 62 66 70 75 82 76 74 78 78 76 76 77 77 76 78 76 76 74 74 73 73 74 74 72 72 73 72 72 75
55 43 83 91 91 73 58 39 40 39 39 34 43 37 43 60 57 73 62 58 59 64 73 80 80 78 76 76 77 76 75 75 77 76 76 76 76 76 75 74 74 75 75 75 74 74 74 72 72
58 63 91 83 79 48 37 35 30 40 40 41 38 45 40 49 59 68 59 66 66 74 81 81 78 74 75 76 75 75 75 75 76 75 74 74 73 73 74 73 76 75 74 74 75 73 71 71 71
66 81 94 91 68 51 32 34 31 44 56 46 40 44 53 56 62 49 52 62 67 74 79 77 79 78 75 76 76 75 75 76 76 75 74 74 72 71 71 73 71 73 74 73 71 71 70 70 72
88 87 90 91 75 63 40 38 40 39 45 39 42 42 53 63 67 69 58 60 63 71 75 73 77 76 76 75 75 75 74 75 77 76 74 72 72 73 73 73 74 71 71 73 72 71 70 69 66
90 96 94 84 90 86 50 34 40 46 38 41 37 49 46 64 60 61 57 56 58 65 75 77 75 77 74 75 74 77 75 74 75 75 74 74 74 73 74 75 74 69 69 67 69 71 71 71 68
95 95 92 88 91 79 63 45 40 52 63 32 32 48 46 58 49 54 52 77 71 68 67 76 78 79 84 82 75 74 74 75 74 73 71 74 72 71 71 78 75 70 70 71 71 68 67 67 67
83 94 92 90 87 81 76 64 42 34 34 33 32 37 35 46 49 58 56 62 79 82 75 77 71 79 87 87 74 75 73 74 74 74 72 79 82 76 73 74 72 69 69 70 72 72 70 69 66
84 90 70 64 66 78 77 75 72 42 36 39 38 33 30 34 42 50 52 67 82 80 87 89 87 76 82 64 85 89 85 92 91 87 84 87 80 84 70 73 69 68 68 68 70 72 71 69 77
82 75 61 56 67 71 79 73 65 58 52 42 45 34 33 35 35 42 52 70 70 73 78 87 89 92 71 87 90 91 88 86 90 82 79 86 78 80 82 88 79 82 74 75 75 77 77 76 78
62 53 56 56 61 75 89 88 88 55 54 42 42 31 36 41 48 45 59 68 74 82 72 81 84 90 84 82 82 80 82 76 75 77 75 79 75 76 73 86 85 83 78 82 79 78 76 73 67
75 58 52 49 53 78 72 77 55 53 38 32 30 32 45 55 52 53 48 58 67 81 81 74 86 84 84 74 76 83 76 73 72 70 70 80 68 63 69 78 81 80 76 76 69 71 64 56 53
58 64 57 45 62 64 64 71 57 56 48 36 31 38 52 53 43 50 50 57 65 78 78 86 79 67 86 88 90 94 91 70 69 73 70 76 80 79 80 69 64 69 74 68 68 61 68 58 49
46 58 62 53 61 67 63 68 69 64 49 40 33 39 40 52 48 47 48 52 64 78 77 69 65 74 91 83 86 90 90 64 71 76 72 75 75 81 79 78 73 71 67 63 67 64 66 59 51
50 58 70 82 64 59 64 76 72 66 60 54 48 39 51 54 46 52 46 53 60 76 77 78 53 80 82 81 87 86 79 67 74 70 76 58 65 78 79 80 86 70 76 72 69 68 65 61 53
35 53 69 72 67 62 63 81 67 66 64 59 56 57 48 53 51 55 46 50 62 66 73 76 62 79 84 89 78 85 68 61 60 72 71 59 67 66 94 96 96 96 95 87 73 71 70 60 60
46 45 55 67 69 72 64 69 69 64 67 61 58 63 57 64 54 50 43 46 55 59 65 67 66 75 81 74 75 71 62 68 68 72 76 78 80 88 94 95 91 94 94 95 93 83 64 61 54
28 40 49 62 57 72 64 66 70 65 70 66 66 66 65 60 54 54 51 44 52 60 69 68 71 81 80 80 82 68 65 66 83 80 69 59 73 87 95 97 87 93 88 90 92 92 72 63 58
27 35 55 73 72 77 58 63 73 65 64 60 67 64 61 61 69 51 51 49 56 68 67 81 80 85 79 79 80 72 70 71 76 78 64 62 59 71 81 93 85 82 84 94 92 94 84 86 67
26 32 51 56 46 36 49 65 75 64 63 61 58 58 60 64 71 63 62 51 63 65 74 72 78 87 79 76 81 81 79 82 85 79 80 72 70 74 76 92 92 94 95 96 94 92 79 84 70
32 22 31 38 44 56 40 78 80 76 72 64 52 59 57 57 70 71 63 52 62 66 69 75 76 84 80 81 76 70 70 74 81 77 79 76 72 68 70 84 91 94 95 94 89 89 81 86 94
25 19 27 27 38 42 36 61 74 82 82 69 58 52 49 49 69 68 65 55 55 64 70 76 81 88 84 85 83 78 76 77 69 73 76 83 75 69 64 79 91 79 84 82 84 89 92 96 95
13 23 29 33 41 59 52 56 90 87 74 66 57 49 47 50 61 61 57 59 60 62 67 75 84 90 88 86 78 79 78 85 80 87 75 85 79 77 76 72 80 84 83 82 83 88 81 94 81
15 23 42 62 61 62 57 52 77 65 59 59 58 53 46 46 63 64 66 69 64 72 71 74 81 86 88 82 83 81 85 79 77 86 73 78 84 79 74 81 78 82 80 80 85 84 84 84 87
19 22 34 59 59 62 46 70 67 64 60 54 46 51 47 48 48 58 63 51 61 61 67 72 80 78 87 85 86 90 86 94 90 80 82 80 75 74 71 81 84 81 83 80 78 86 82 84 84
16 28 18 23 34 59 72 70 48 56 58 62 67 59 59 50 42 57 54 48 52 50 64 72 76 76 79 78 90 87 90 89 76 72 86 89 82 70 84 82 83 81 79 84 79 79 83 85 83
15 14 26 48 63 62 81 86 82 76 78 76 77 77 60 46 45 55 54 59 61 41 61 70 74 78 77 72 87 83 85 86 88 90 81 88 83 81 86 84 81 83 82 82 88 81 83 86 84
34 26 49 64 82 83 90 86 75 83 82 91 89 84 79 44 42 52 50 54 69 55 57 68 74 74 74 71 76 79 84 84 90 90 85 84 83 87 90 87 88 85 85 83 89 81 87 81 85
33 39 45 58 84 87 90 87 76 78 78 85 90 88 80 82 57 65 53 72 83 87 89 83 71 72 70 68 72 71 81 88 92 87 86 85 84 87 89 88 84 84 86 84 84 85 75 85 86

GFSSGP_sfc_rhum_147.txt.gz
RH
66 68 73 81 87 82 75 71 56 61 63 54 51 62 65 73 68 70 83 76 76 78 78 73 74 74 75 76 76 77 71 72 76 76 77 77 76 76 75 76 75 74 72 71 72 72 72 72 70
58 46 74 91 84 80 77 57 62 59 54 58 53 56 69 80 73 90 88 75 74 81 86 81 80 74 76 78 78 76 75 76 77 78 76 75 75 75 75 75 74 75 74 73 73 71 72 72 73
63 50 77 86 85 85 83 57 60 51 50 52 56 59 70 85 74 81 79 74 81 88 91 86 76 76 76 75 76 76 77 76 77 77 75 74 74 74 74 74 74 74 74 74 71 71 71 71 70
66 85 84 86 74 69 57 54 50 50 46 46 57 73 67 62 70 73 72 79 88 94 92 78 75 76 76 70 74 75 76 76 76 76 76 74 73 72 74 75 75 75 75 74 72 72 73 70 70
80 88 90 88 78 68 72 47 45 52 53 53 52 76 83 66 68 72 76 79 93 97 93 82 76 76 76 75 76 76 75 76 76 76 75 74 74 74 74 74 74 75 75 73 72 72 71 70 68
83 83 91 94 88 80 65 72 48 55 54 58 68 77 94 72 72 75 79 87 87 95 91 83 76 75 75 74 75 76 75 74 75 75 74 74 74 73 73 73 73 73 72 71 71 70 74 72 69
82 90 94 88 92 87 83 62 50 55 58 59 54 91 89 82 77 77 83 88 90 87 90 90 83 79 74 75 75 75 76 76 76 74 73 72 73 73 72 72 73 70 70 69 70 70 70 68 67
89 89 89 87 90 91 67 59 46 52 57 46 54 90 94 75 75 82 87 93 94 92 91 95 93 89 93 85 72 73 74 75 73 76 74 73 73 71 71 77 71 66 66 67 67 66 67 67 64
74 90 96 88 90 82 69 67 48 42 46 44 47 61 66 67 80 88 96 97 98 93 95 95 95 95 94 91 83 75 73 72 74 75 75 84 88 84 83 76 70 68 66 66 65 64 64 64 67
81 91 76 70 76 81 69 74 68 54 47 54 62 64 66 70 83 87 94 97 96 98 97 96 96 96 95 78 92 92 86 94 93 90 93 92 92 91 79 77 69 67 68 69 70 70 67 67 77
80 81 63 65 67 73 72 69 76 54 53 59 74 72 67 74 79 82 86 88 90 93 93 94 96 96 94 93 98 98 99 98 97 92 94 92 90 95 92 93 96 91 76 83 80 82 85 86 86
79 70 68 68 69 70 75 82 80 66 50 51 60 61 68 77 78 78 82 86 90 92 90 92 96 96 95 96 98 97 96 95 97 92 91 96 95 95 92 91 91 89 87 85 85 85 83 82 80
64 66 63 64 67 72 74 79 73 62 45 53 56 64 71 71 74 74 74 85 90 90 87 90 92 94 95 96 98 97 97 94 91 89 90 93 92 91 85 86 88 90 88 89 85 88 86 85 82
55 70 66 63 68 69 72 77 78 60 45 54 58 65 65 66 65 71 77 86 91 85 87 90 88 89 93 96 95 97 97 90 84 86 88 88 87 85 86 82 82 88 89 84 85 85 81 77 68
67 78 71 70 71 70 74 85 82 69 51 53 58 57 61 60 63 70 73 78 83 86 81 87 82 88 93 93 93 96 93 79 79 84 86 83 87 89 89 88 81 90 89 84 77 76 75 80 62
57 74 83 74 68 66 71 76 76 73 60 52 51 54 58 61 63 65 66 70 73 88 79 86 66 82 88 91 92 96 89 83 78 84 86 79 84 88 91 94 96 92 86 86 85 81 78 69 67
78 75 77 76 72 69 77 78 64 74 60 62 60 53 62 61 65 68 65 62 70 81 79 88 74 89 82 88 86 93 84 85 82 85 94 77 84 86 92 92 94 92 89 89 84 87 88 80 68
62 73 67 75 74 68 82 82 70 66 65 59 58 61 70 64 66 69 68 61 74 74 81 78 78 94 90 91 94 96 93 89 87 83 81 86 90 87 89 90 92 91 91 92 92 89 88 72 68
44 57 64 67 68 73 80 75 74 67 71 69 64 68 70 69 63 64 67 68 76 76 84 70 74 93 93 93 94 96 84 86 87 84 85 88 90 87 87 90 86 89 91 91 88 95 92 82 79
25 54 64 63 67 80 81 79 74 75 64 67 66 66 64 68 76 65 74 72 74 79 84 88 84 93 88 86 89 88 85 81 82 84 84 88 83 81 83 85 80 84 92 88 91 86 91 83 85
19 57 69 56 67 69 74 82 87 83 75 67 66 60 58 61 74 68 73 71 70 77 80 77 79 92 92 85 88 91 90 91 96 89 89 69 81 80 89 85 85 86 92 92 92 88 82 84 89
24 45 48 40 63 80 67 76 78 90 82 76 63 72 66 69 71 68 67 70 69 72 72 74 80 86 88 88 85 82 81 92 93 87 86 76 74 86 90 88 90 91 94 91 94 81 84 92 91
21 40 38 44 60 57 53 72 67 91 96 90 68 62 68 63 68 67 67 65 64 66 71 74 82 83 88 90 86 84 85 83 87 87 82 84 86 88 85 91 91 88 86 82 90 93 93 94 91
28 33 36 51 58 59 50 69 78 96 90 86 77 69 65 66 61 70 74 70 76 66 67 74 85 86 90 90 88 84 83 88 88 92 79 86 88 94 89 89 92 88 80 79 78 89 93 90 79
22 30 49 64 65 60 69 66 91 81 79 83 85 71 65 64 61 76 80 74 72 76 74 78 82 83 90 89 89 88 87 89 85 87 80 91 92 90 86 93 92 93 90 81 84 93 93 94 93
24 26 37 47 72 60 57 64 91 73 77 82 79 84 76 72 57 68 69 78 73 69 75 76 82 79 89 91 90 92 91 94 93 86 84 86 90 86 82 90 92 88 90 90 92 95 93 92 90
22 26 27 43 62 53 69 76 79 70 78 80 77 85 90 85 70 61 68 75 73 70 75 76 82 79 85 86 92 94 95 92 87 88 93 94 90 83 83 85 92 89 89 91 90 94 91 92 91
28 21 30 56 61 69 78 82 74 72 83 84 85 86 89 90 85 69 62 66 68 70 73 75 79 79 79 80 88 85 92 92 90 92 89 92 88 87 86 87 90 90 88 89 93 92 90 92 93
35 50 75 76 74 80 80 77 78 76 84 86 84 78 84 87 88 81 73 67 72 66 74 81 78 79 78 83 84 85 91 91 93 92 88 89 91 91 92 91 94 93 91 92 94 94 93 92 92
44 51 59 54 74 89 85 74 82 84 87 84 81 79 87 88 86 94 76 82 80 80 78 86 79 75 71 75 81 83 86 95 94 91 91 90 91 93 94 94 96 94 90 94 95 94 92 93 93